FAISAT 2V

Satellite information

Favourite Embed

Satellite Type and Status

PAYLOADIN ORBIT

Key statistics

Satellite FAISAT 2V at a glance.

Uptime

10310

Days in orbit

Revolutions

≈ 13.8

Per day

Orbit

LEO

Low Earth Orbit

Inclination

82.9

Latest

Satellite identification and parameters

Extended collection of information and parameters for FAISAT 2V.

Object identification

Identified? True

Debris? False

Object name: FAISAT 2V

International designator: 1997-052B

Object number (NORAD): 24954

Object ID (CCSDS): 24954

Country: UNITED STATES OF AMERICA (US)

Current information (Y/N): Y

RCS size: MEDIUM

Orbital parameters

Period: 104.322 minutes

Inclination: 82.9219 deg

SMA: 7340.804 km

Apoapsis: 992.438 km

Periapsis: 932.901 km

RAAN: 122.7556 deg

Eccentricy: 0.00405523

Argument of periapsis: 111.5016 deg

Mean anomaly: 312.9387 deg

Mean motion: 13.80343913 rev/day

Mean motion (dot): 0.00000126 rev/day2

B* drag term: 0.00010501688 1/REarth

Two-line elements (TLE)

Creation date: Dec. 14, 2025, 6:24 p.m.

Reference frame: TEME

Reference center: EARTH

Epoch: Dec. 14, 2025, 7:57 a.m. UTC

TLE line 0: 0 FAISAT 2V

TLE line 1: 1 24954U 97052B 25348.33145632 .00000126 00000-0 10502-3 0 9996

TLE line 2: 2 24954 82.9219 122.7556 0040552 111.5016 312.9387 13.80343913421506

Live tracking on map

Real-time ground track for satellite FAISAT 2V.

In-orbit conjunctions

A list of the most updated potential collisions computed for object FAISAT 2V.

Target Orbit TCA Probability of collision Miss distance Type
COSMOS 1275 DEB LEO 2025-12-14 22:49:53 0.0001511599 89.0 (m) DEBRIS
FENGYUN 1C DEB SSO 2025-01-04 12:35:48 0.000121285 593.0 (m) DEBRIS
FENGYUN 1C DEB SSO 2024-10-12 19:56:20 0.0001368488 249.0 (m) DEBRIS
THORAD AGENA D DEB SSO 2024-08-20 13:02:24 0.0001075428 331.0 (m) DEBRIS

Associated space launch

Navigation satellite providing location information for the Tsiklon-B navigation system

FAISAT 2V was lifted into orbit during the mission ‘Kosmos-3M | Parus 89’, on board a Kosmos-3M space rocket.

The launch took place on Sept. 23, 1997, 4:44 p.m. from 132/1 (132L).

For more information about the launch, click the button.

Launch to space Kosmos-3M | Parus 89
Kosmos-3M | Parus 89

Agency: N/A

Status: Launch Successful

Launch date: Sept. 23, 1997, 4:44 p.m. UTC

Rocket: Kosmos-3M

Launch pad: 132/1 (132L)

Location: Plesetsk Cosmodrome, Russian Federation

...

Latest news about this satellite

There are no fresh news available about this satellite. Check back as we update our databases every day.


Newsletter sign-up

Weekly statistics, charts and insights to help you stay on top of the space industry.